Banff, Alberta

2:25 PM MDT on October 21, 2017 (GMT -0600)
Banff

Weather History for CWZG - November, 2012

Change the Weather History Date:

Tuesday, November 20, 2012

  Actual Average Record
Temperature  
Mean Temperature 27 °F -  
Max Temperature 36 °F - - ()
Min Temperature 17 °F - - ()
Degree Days  
Heating Degree Days 38    
Moisture  
Dew Point 28 °F    
Average Humidity 89    
Maximum Humidity 99    
Minimum Humidity 78    
Precipitation  
Precipitation 0.26 in - - ()
Sea Level Pressure  
Sea Level Pressure 29.68 in    
Wind  
Wind Speed 3 mph ()    
Max Wind Speed 6 mph    
Max Gust Speed -    
T = Trace of Precipitation, MM = Missing Value Source: Averaged Metar Reports

Daily Weather History Graph

Daily Weather History Graph

Search for Another Location

Airport or City:

Trip Planner

Search our weather history database for the weather conditions in past years. The results will help you decide how hot, cold, wet, or windy it might be!

Date:

Astronomy

Nov. 20, 2012 Rise Set
Actual Time 8:08 AM MST 4:46 PM MST
Civil Twilight 7:31 AM MST 5:24 PM MST
Nautical Twilight 6:50 AM MST 6:05 PM MST
Astronomical Twilight 6:10 AM MST 6:44 PM MST
Moon 1:20 PM MST (11/20) No Moon Set
Length of Visible Light 9h 53m
Length of Day
8h 38m
First Quarter, 52% of the Moon is Illuminated
Nov 20
First Quarter
Nov 28
Full
Dec 6
Last Quarter
Dec 13
New
Dec 19
First Quarter

Hourly Weather History & Observations

Time (MST) Temp. Windchill Dew Point Humidity Pressure Visibility Wind Dir Wind Speed Gust Speed Precip Events Conditions
12:00 AM 34.7 °F - 31.3 °F 87% 29.50 in - SW 2.3 mph - N/A   Unknown
1:00 AM 34.7 °F 29.6 °F 33.1 °F 94% 29.50 in - SW 5.8 mph - N/A   Unknown
2:00 AM 34.5 °F 29.4 °F 31.3 °F 88% 29.52 in - SSW 5.8 mph - N/A   Unknown
3:00 AM 36.1 °F 33.5 °F 31.5 °F 83% 29.57 in - WSW 3.5 mph - N/A   Unknown
4:00 AM 34.0 °F 31.0 °F 31.8 °F 92% 29.57 in - SW 3.5 mph - N/A   Unknown
5:00 AM 34.2 °F 29.0 °F 31.8 °F 91% 29.64 in - WSW 5.8 mph - 0.02 in   Unknown
6:00 AM 31.3 °F 27.9 °F 31.1 °F 99% 29.67 in - SSW 3.5 mph - 0.02 in   Unknown
7:00 AM 33.1 °F 30.0 °F 31.6 °F 94% 29.69 in - SW 3.5 mph - N/A   Unknown
8:00 AM 32.9 °F 27.5 °F 30.7 °F 92% 29.73 in - SW 5.8 mph - N/A   Unknown
9:00 AM 31.6 °F 27.0 °F 30.7 °F 96% 29.74 in - SW 4.6 mph - N/A   Unknown
10:00 AM 33.4 °F 28.1 °F 30.9 °F 90% 29.75 in - SW 5.8 mph - N/A   Unknown
11:00 AM 34.2 °F 31.2 °F 31.1 °F 89% 29.75 in - SW 3.5 mph - N/A   Unknown
12:00 PM 36.1 °F - 31.5 °F 83% 29.73 in - WNW 1.2 mph - N/A   Unknown
1:00 PM 36.7 °F - 30.4 °F 78% 29.72 in - ENE 1.2 mph - N/A   Unknown
2:00 PM 36.0 °F - 31.6 °F 84% 29.71 in - West 2.3 mph - N/A   Unknown
3:00 PM 34.7 °F - 31.3 °F 87% 29.72 in - SW 2.3 mph - N/A   Unknown
4:00 PM 34.0 °F - 30.7 °F 88% 29.72 in - Calm Calm - N/A   Unknown
5:00 PM 31.5 °F 28.1 °F 29.7 °F 93% 29.71 in - ESE 3.5 mph - N/A   Unknown
6:00 PM 28.6 °F 23.5 °F 26.6 °F 92% 29.70 in - East 4.6 mph - 0.02 in   Unknown
7:00 PM 23.7 °F 16.6 °F 20.8 °F 89% 29.74 in - NE 5.8 mph - N/A   Unknown
8:00 PM 20.8 °F 13.2 °F 18.1 °F 89% 29.74 in - NNE 5.8 mph - 0.02 in   Unknown
9:00 PM 19.0 °F 11.1 °F 16.7 °F 91% 29.75 in - NNE 5.8 mph - 0.14 in   Unknown
10:00 PM 18.3 °F 11.5 °F 15.3 °F 88% 29.75 in - NE 4.6 mph - 0.01 in   Unknown
11:00 PM 17.8 °F 12.5 °F 14.9 °F 88% 29.76 in - NE 3.5 mph - 0.03 in   Unknown